STARLINK-32256, 60362

Orbit data source: Space-Track

STARLINK-32256, 60362 is a payload satellite owned by SpaceX/Seattle (US) in LEO that was launched on Sun, 04 Aug 2024 UTC via an FALCON 9 launch vehicle from the Air Force Western Test Range (AFWTR). Payload-class satellites include a variety of spacecraft equipped with specific instruments for various scientific and technological missions. These include communications satellites like Starlink; space stations such as the ISS; scientific satellites like the Hubble; Earth observation satellites from companies like Planet Labs, Umbra, and HawkEye 360; GPS; miniature CubeSats for education and research; and military/defense satellites.

Loading next visibility...
Identifier
60362, 2024-138H
Orbit
LEO
Country
Flag of USUS
Related business
Manufacturer
SpaceX/Seattle
Mission
Operational Commercial Communications
Bus & Motor
STARLINK V2M, Unknown motor
Mass
730 kg wet, ~700 kg dry
Launch date (UTC)
2024-08-04 (2 years ago)
Launch vehicle
FALCON 9
Launch site
Air Force Western Test Range (AFWTR)
Object type
Payload
Rocket body
Debris
Shape & HBR
Box + 2 Pan, 17.7 m
Radar Cross Section
33.884 m², Large (>1 m²)

Expand to show TLE details & history
Last TLE update: 13 hours ago

TLE from 13 hours ago
0 STARLINK-32256
1 60362U 24138H   26258.11019516  .00000060  00000-0  12938-4 0  9995
2 60362  53.1606 148.6977 0001957 105.6575 254.4643 15.34399330119631
Epoch: 2026-09-15T02:38Z
TLE epoch observation values (Epoch: 2026-09-15T02:38:40.861Z)
Latitude
-0.00009°
Longitude
114.94653°
Altitude
463.965 km
Speed
7.636 km/s
True Right ascension
09h 54m 47s
True Declination
0° 00' 00"
Sunlit
Object was in daylight at epoch
Visualization orbit readout
Latitude
Unknown
Longitude
Unknown
Altitude
Unknown
Speed
Unknown
Apparent Right ascension
Unknown
Apparent Declination
Unknown
Sunlit
N/A
Visualization observer readout
Local Sidereal Time
08:41:30
Azimuth
Unknown
Elevation
Unknown
Doppler factor
Unknown
Orbital elements
Apogee altitude
464.301 km
Perigee altitude
461.623 km
Semi-major axis
6,841.099 km
Eccentricity
0.0002
Inclination
53.1606°
RAAN
148.6977°
Arg. of periapsis
105.6575°
True anomaly
254.4427°
Mean anomaly
254.4643°
Eccentric anomaly
254.4535°
Mean motion
3.83579 °/min
Orbital period
93.85 mins
BSTAR
0.000012938
Loading maneuver chart data...
Computing Atmospheric mass density...
Loading historical data...
Loading historical data...
Loading historical data...
Loading historical data...
Loading historical data...
Loading historical data...
Loading historical data...

Documentation

Showing up to 5 results
|